Location: Doazon
(43.4500°N, 0.5500°W)
Time: 22:28:50
(UTC+00:00)

Cosmos 2297 Rocket - Pass Details

Date: 05 December 2025
Orbit: 837 x 844 km, 71.0° (Epoch: 21 January)

Event Time Altitude Azimuth Distance (km) Brightness Sun altitude
Rises 17:34:41 0° 340° (NNW) 3,410 5.4 -12.1°
Reaches altitude 10° 17:37:17 10° 347° (NNW) 2,472 4.6 -12.5°
Maximum altitude 17:42:39 42° 58° (ENE) 1,192 2.5 -13.4°
Drops below altitude 10° 17:47:59 10° 128° (SE) 2,459 4.3 -14.4°
Sets 17:50:33 0° 136° (SE) 3,390 5.1 -14.8°
